Find JD2

NORAD ID: 14729 Int'l Des: 1984-012 Owner: NRO/NRL Country: US operational
LEO

Current View

Loading 3D Globe...

About JD2

Description loading...

Upcoming Passes

Passes for default location (London). Set your location on the main map for personalized predictions.

Altitude History

Loading altitude history...

Two-Line Element Set

1 14729U 84012D 26150.04551770 .00003072 00000-0 37754-3 0 9992
2 14729 63.3063 85.3647 0745202 128.2017 238.8568 13.75998263341416
Epoch: May 30, 2026 • Age: 7 hours

Current Status

Altitude 1134.5 km
Velocity 7.21 km/s
Sub-Earth Point 15.76°N, 82.41°E
Launch Date Feb 5, 1984
Age 42.3 years
Type other

Technical Details

Classification Payload
Mass 200.00 kg
Dry Mass 200.00 kg
Total Mass 200.00 kg
Length 0.90 m
Diameter 0.40 m
Span 10.00 m
Shape Box + Ant
Manufacturer MM
Bus Type NOSS SSU
Phase Status In Orbit
Owner/State NRO/NRL/US

Most Searched